Tracking 28052 objects as of 23-Sep-2023
HD Live streaming from Space Station
objects crossing your sky now

STARLINK-4650

Track STARLINK-4650 now!
10-day predictions
STARLINK-4650 is classified as:


NORAD ID: 53611
Int'l Code: 2022-104Z
Perigee: 545.7 km
Apogee: 548.0 km
Inclination: 53.2 °
Period: 95.4 minutes
Semi major axis: 6917 km
RCS: Unknown
Launch date: August 28, 2022
Source: United States (US)
Launch site: AIR FORCE EASTERN TEST RANGE (AFETR)
Your satellite tracking list
Your tracking list is empty




NASA's NSSDC Master Catalog

Two Line Element Set (TLE):
1 53611U 22104Z   23265.49332179  .00006882  00000-0  44987-3 0  9990
2 53611  53.2168 311.0007 0001692  73.5722 286.5456 15.08854298 60001
Source of the keplerian elements: AFSPC